Location: Gollag?dem
(16.8053°N, 80.8024°E)
Time: 18:16:19
(UTC+00:00)

PSLV R/B - Pass Details

Date: 13 August 2020
Orbit: 594 x 629 km, 97.9° (Epoch: 18 September)

Event Time Altitude Azimuth Distance (km) Brightness Sun altitude
Rises 22:31:25 0° 5° (N) 2,897 7.4 -25.3°
Reaches altitude 10° 22:33:38 10° 0° (N) 1,985 6.4 -24.8°
Enters shadow 22:36:45 42° 333° (NNW) 889 4.3 -24.1°
